owner,sensor,date,latitude,longitude,vertical_datum,wind_speed,wind_to_direction,wind_speed_of_gust,qcFlag 
COMPS,ioos:station:USF.COMPS:C12:1,2016-07-01T00:05:00Z,27.4980,-83.7220,3.0,2.39,175.39,3.17,'1111122,1111122,1111122' 
COMPS,ioos:station:USF.COMPS:C12:1,2016-07-01T00:35:00Z,27.4980,-83.7220,3.0,2.35,186.6,3.04,'1111122,1111122,1111122' 
COMPS,ioos:station:USF.COMPS:C12:1,2016-07-01T01:05:00Z,27.4980,-83.7220,3.0,4.64,257.54,5.9,'1111122,1111122,1111122' 
COMPS,ioos:station:USF.COMPS:C12:1,2016-07-01T01:35:00Z,27.4980,-83.7220,3.0,3.05,263.04,4.03,'1111122,1111122,1111122' 
COMPS,ioos:station:USF.COMPS:C12:1,2016-07-01T02:05:00Z,27.4980,-83.7220,3.0,2.14,257.0,3.63,'1111122,1111122,1111122' 
COMPS,ioos:station:USF.COMPS:C12:1,2016-07-01T02:35:00Z,27.4980,-83.7220,3.0,2.62,226.62,4.08,'1111122,1111122,1111122' 
COMPS,ioos:station:USF.COMPS:C12:1,2016-07-01T03:05:00Z,27.4980,-83.7220,3.0,1.77,221.82,2.42,'1111122,1111122,1111122' 
COMPS,ioos:station:USF.COMPS:C12:1,2016-07-01T03:35:00Z,27.4980,-83.7220,3.0,1.5,204.75,2.35,'1111122,1111122,1111122' 
COMPS,ioos:station:USF.COMPS:C12:1,2016-07-01T04:05:00Z,27.4980,-83.7220,3.0,1.86,223.18,2.61,'1111122,1111122,1111122' 
COMPS,ioos:station:USF.COMPS:C12:1,2016-07-01T04:35:00Z,27.4980,-83.7220,3.0,1.86,213.03,2.8,'1111122,1111122,1111122' 
COMPS,ioos:station:USF.COMPS:C12:1,2016-07-01T05:05:00Z,27.4980,-83.7220,3.0,1.88,205.17,2.64,'1111122,1111122,1111122' 
COMPS,ioos:station:USF.COMPS:C12:1,2016-07-01T05:35:00Z,27.4980,-83.7220,3.0,3.25,183.96,3.97,'1111122,1111122,1111122' 
COMPS,ioos:station:USF.COMPS:C12:1,2016-07-01T06:05:00Z,27.4980,-83.7220,3.0,3.83,186.07,5.03,'1111122,1111122,1111122' 
COMPS,ioos:station:USF.COMPS:C12:1,2016-07-01T06:35:00Z,27.4980,-83.7220,3.0,4.34,176.36,5.59,'1111122,1111122,1111122' 
COMPS,ioos:station:USF.COMPS:C12:1,2016-07-01T07:05:00Z,27.4980,-83.7220,3.0,4.95,177.51,6.0,'1111122,1111122,1111122' 
COMPS,ioos:station:USF.COMPS:C12:1,2016-07-01T07:35:00Z,27.4980,-83.7220,3.0,5.24,181.71,6.27,'1111122,1111122,1111122' 
COMPS,ioos:station:USF.COMPS:C12:1,2016-07-01T08:05:00Z,27.4980,-83.7220,3.0,4.21,191.44,5.33,'1111122,1111122,1111122' 
COMPS,ioos:station:USF.COMPS:C12:1,2016-07-01T08:35:00Z,27.4980,-83.7220,3.0,4.49,206.02,5.62,'1111122,1111122,1111122' 
COMPS,ioos:station:USF.COMPS:C12:1,2016-07-01T09:05:00Z,27.4980,-83.7220,3.0,4.34,216.32,5.46,'1111122,1111122,1111122' 
COMPS,ioos:station:USF.COMPS:C12:1,2016-07-01T09:35:00Z,27.4980,-83.7220,3.0,3.59,207.1,5.18,'1111122,1111122,1111122' 
COMPS,ioos:station:USF.COMPS:C12:1,2016-07-01T10:05:00Z,27.4980,-83.7220,3.0,4.33,191.4,5.5,'1111122,1111122,1111122' 
COMPS,ioos:station:USF.COMPS:C12:1,2016-07-01T10:35:00Z,27.4980,-83.7220,3.0,2.66,158.21,3.95,'1111122,1111122,1111122' 
COMPS,ioos:station:USF.COMPS:C12:1,2016-07-01T11:05:00Z,27.4980,-83.7220,3.0,2.42,182.4,3.25,'1111122,1111122,1111122' 
COMPS,ioos:station:USF.COMPS:C12:1,2016-07-01T11:35:00Z,27.4980,-83.7220,3.0,4.58,213.43,5.96,'1111122,1111122,1111122' 
COMPS,ioos:station:USF.COMPS:C12:1,2016-07-01T12:05:00Z,27.4980,-83.7220,3.0,4.9,219.06,6.03,'1111122,1111122,1111122' 
COMPS,ioos:station:USF.COMPS:C12:1,2016-07-01T12:35:00Z,27.4980,-83.7220,3.0,4.73,219.56,5.81,'1111122,1111122,1111122' 
COMPS,ioos:station:USF.COMPS:C12:1,2016-07-01T13:05:00Z,27.4980,-83.7220,3.0,4.51,221.61,5.63,'1111122,1111122,1111122' 
COMPS,ioos:station:USF.COMPS:C12:1,2016-07-01T13:35:00Z,27.4980,-83.7220,3.0,4.69,220.43,5.9,'1111122,1111122,1111122' 
COMPS,ioos:station:USF.COMPS:C12:1,2016-07-01T14:05:00Z,27.4980,-83.7220,3.0,4.9,231.68,5.91,'1111122,1111122,1111122' 
COMPS,ioos:station:USF.COMPS:C12:1,2016-07-01T14:35:00Z,27.4980,-83.7220,3.0,4.05,280.55,5.17,'1111122,1111122,1111122' 
COMPS,ioos:station:USF.COMPS:C12:1,2016-07-01T15:05:00Z,27.4980,-83.7220,3.0,3.32,266.35,4.45,'1111122,1111122,1111122' 
COMPS,ioos:station:USF.COMPS:C12:1,2016-07-01T15:35:00Z,27.4980,-83.7220,3.0,2.73,262.84,3.4,'1111122,1111122,1111122' 
COMPS,ioos:station:USF.COMPS:C12:1,2016-07-01T16:05:00Z,27.4980,-83.7220,3.0,2.32,252.18,3.54,'1111122,1111122,1111122' 
COMPS,ioos:station:USF.COMPS:C12:1,2016-07-01T16:35:00Z,27.4980,-83.7220,3.0,2.39,263.65,3.39,'1111122,1111122,1111122' 
COMPS,ioos:station:USF.COMPS:C12:1,2016-07-01T17:05:00Z,27.4980,-83.7220,3.0,2.52,255.49,3.4,'1111122,1111122,1111122' 
COMPS,ioos:station:USF.COMPS:C12:1,2016-07-01T17:35:00Z,27.4980,-83.7220,3.0,2.36,261.32,3.09,'1111122,1111122,1111122' 
COMPS,ioos:station:USF.COMPS:C12:1,2016-07-01T18:05:00Z,27.4980,-83.7220,3.0,2.69,251.5,3.85,'1111122,1111122,1111122' 
COMPS,ioos:station:USF.COMPS:C12:1,2016-07-01T18:35:00Z,27.4980,-83.7220,3.0,3.45,238.25,4.2,'1111122,1111122,1111122' 
COMPS,ioos:station:USF.COMPS:C12:1,2016-07-01T19:05:00Z,27.4980,-83.7220,3.0,3.93,235.35,5.04,'1111122,1111122,1111122' 
COMPS,ioos:station:USF.COMPS:C12:1,2016-07-01T19:35:00Z,27.4980,-83.7220,3.0,4.44,229.43,5.6,'1111122,1111122,1111122' 
COMPS,ioos:station:USF.COMPS:C12:1,2016-07-01T20:05:00Z,27.4980,-83.7220,3.0,4.07,247.82,5.3,'1111122,1111122,1111122' 
COMPS,ioos:station:USF.COMPS:C12:1,2016-07-01T20:35:00Z,27.4980,-83.7220,3.0,4.91,235.02,6.78,'1111122,1111122,1111122' 
COMPS,ioos:station:USF.COMPS:C12:1,2016-07-01T21:05:00Z,27.4980,-83.7220,3.0,5.52,304.34,6.68,'1111122,1111122,1111122' 
COMPS,ioos:station:USF.COMPS:C12:1,2016-07-01T21:35:00Z,27.4980,-83.7220,3.0,6.06,240.45,8.52,'1111122,1111122,1111122' 
COMPS,ioos:station:USF.COMPS:C12:1,2016-07-01T22:05:00Z,27.4980,-83.7220,3.0,8.8,283.54,11.75,'1111122,1111122,1111122' 
COMPS,ioos:station:USF.COMPS:C12:1,2016-07-01T22:35:00Z,27.4980,-83.7220,3.0,2.34,284.27,5.64,'1111122,1111122,1111122' 
COMPS,ioos:station:USF.COMPS:C12:1,2016-07-01T23:05:00Z,27.4980,-83.7220,3.0,3.21,290.59,3.91,'1111122,1111122,1111122' 
COMPS,ioos:station:USF.COMPS:C12:1,2016-07-01T23:35:00Z,27.4980,-83.7220,3.0,2.06,309.75,3.74,'1111122,1111122,1111122' 
COMPS,ioos:station:USF.COMPS:C12:1,2016-07-02T00:05:00Z,27.4980,-83.7220,3.0,1.15,38.11,1.85,'1111122,1111122,1111122' 
COMPS,ioos:station:USF.COMPS:C12:1,2016-07-02T00:35:00Z,27.4980,-83.7220,3.0,1.25,78.48,2.18,'1111122,1111122,1111122' 
COMPS,ioos:station:USF.COMPS:C12:1,2016-07-02T01:05:00Z,27.4980,-83.7220,3.0,1.14,118.01,1.83,'1111122,1111122,1111122' 
COMPS,ioos:station:USF.COMPS:C12:1,2016-07-02T01:35:00Z,27.4980,-83.7220,3.0,1.24,153.42,1.8,'1111122,1111122,1111122' 
COMPS,ioos:station:USF.COMPS:C12:1,2016-07-02T02:05:00Z,27.4980,-83.7220,3.0,1.46,149.62,2.24,'1111122,1111122,1111122' 
COMPS,ioos:station:USF.COMPS:C12:1,2016-07-02T02:35:00Z,27.4980,-83.7220,3.0,2.3,140.67,2.98,'1111122,1111122,1111122' 
COMPS,ioos:station:USF.COMPS:C12:1,2016-07-02T03:05:00Z,27.4980,-83.7220,3.0,1.69,165.19,3.03,'1111122,1111122,1111122' 
COMPS,ioos:station:USF.COMPS:C12:1,2016-07-02T03:35:00Z,27.4980,-83.7220,3.0,1.64,179.15,2.27,'1111122,1111122,1111122' 
COMPS,ioos:station:USF.COMPS:C12:1,2016-07-02T04:05:00Z,27.4980,-83.7220,3.0,1.98,180.03,2.71,'1111122,1111122,1111122' 
COMPS,ioos:station:USF.COMPS:C12:1,2016-07-02T04:35:00Z,27.4980,-83.7220,3.0,2.87,170.98,3.55,'1111122,1111122,1111122' 
COMPS,ioos:station:USF.COMPS:C12:1,2016-07-02T05:05:00Z,27.4980,-83.7220,3.0,3.08,174.23,4.19,'1111122,1111122,1111122' 
COMPS,ioos:station:USF.COMPS:C12:1,2016-07-02T05:35:00Z,27.4980,-83.7220,3.0,3.14,175.92,4.23,'1111122,1111122,1111122' 
COMPS,ioos:station:USF.COMPS:C12:1,2016-07-02T06:05:00Z,27.4980,-83.7220,3.0,2.95,174.91,3.79,'1111122,1111122,1111122' 
COMPS,ioos:station:USF.COMPS:C12:1,2016-07-02T06:35:00Z,27.4980,-83.7220,3.0,3.97,185.75,5.4,'1111122,1111122,1111122' 
COMPS,ioos:station:USF.COMPS:C12:1,2016-07-02T07:05:00Z,27.4980,-83.7220,3.0,4.2,187.37,4.97,'1111122,1111122,1111122' 
COMPS,ioos:station:USF.COMPS:C12:1,2016-07-02T07:35:00Z,27.4980,-83.7220,3.0,5.1,186.42,6.32,'1111122,1111122,1111122' 
COMPS,ioos:station:USF.COMPS:C12:1,2016-07-02T08:05:00Z,27.4980,-83.7220,3.0,3.86,193.39,4.97,'1111122,1111122,1111122' 
COMPS,ioos:station:USF.COMPS:C12:1,2016-07-02T08:35:00Z,27.4980,-83.7220,3.0,4.31,194.69,5.36,'1111122,1111122,1111122' 
COMPS,ioos:station:USF.COMPS:C12:1,2016-07-02T09:05:00Z,27.4980,-83.7220,3.0,4.51,196.8,5.69,'1111122,1111122,1111122' 
COMPS,ioos:station:USF.COMPS:C12:1,2016-07-02T09:35:00Z,27.4980,-83.7220,3.0,4.62,183.33,5.76,'1111122,1111122,1111122' 
COMPS,ioos:station:USF.COMPS:C12:1,2016-07-02T10:05:00Z,27.4980,-83.7220,3.0,5.21,193.19,6.16,'1111122,1111122,1111122' 
COMPS,ioos:station:USF.COMPS:C12:1,2016-07-02T10:35:00Z,27.4980,-83.7220,3.0,5.34,202.31,6.29,'1111122,1111122,1111122' 
COMPS,ioos:station:USF.COMPS:C12:1,2016-07-02T11:05:00Z,27.4980,-83.7220,3.0,5.26,207.38,6.45,'1111122,1111122,1111122' 
COMPS,ioos:station:USF.COMPS:C12:1,2016-07-02T11:35:00Z,27.4980,-83.7220,3.0,5.37,206.47,6.39,'1111122,1111122,1111122' 
COMPS,ioos:station:USF.COMPS:C12:1,2016-07-02T12:05:00Z,27.4980,-83.7220,3.0,5.48,205.4,6.54,'1111122,1111122,1111122' 
COMPS,ioos:station:USF.COMPS:C12:1,2016-07-02T12:35:00Z,27.4980,-83.7220,3.0,5.28,221.5,6.25,'1111122,1111122,1111122' 
COMPS,ioos:station:USF.COMPS:C12:1,2016-07-02T13:05:00Z,27.4980,-83.7220,3.0,8.21,235.32,10.0,'1111122,1111122,1111122' 
COMPS,ioos:station:USF.COMPS:C12:1,2016-07-02T13:35:00Z,27.4980,-83.7220,3.0,4.25,240.55,7.55,'1111122,1111122,1111122' 
COMPS,ioos:station:USF.COMPS:C12:1,2016-07-02T14:05:00Z,27.4980,-83.7220,3.0,2.89,226.41,3.71,'1111122,1111122,1111122' 
COMPS,ioos:station:USF.COMPS:C12:1,2016-07-02T14:35:00Z,27.4980,-83.7220,3.0,3.23,221.64,4.16,'1111122,1111122,1111122' 
COMPS,ioos:station:USF.COMPS:C12:1,2016-07-02T15:05:00Z,27.4980,-83.7220,3.0,4.74,231.09,6.12,'1111122,1111122,1111122' 
COMPS,ioos:station:USF.COMPS:C12:1,2016-07-02T15:35:00Z,27.4980,-83.7220,3.0,3.7,231.69,4.75,'1111122,1111122,1111122' 
COMPS,ioos:station:USF.COMPS:C12:1,2016-07-02T16:05:00Z,27.4980,-83.7220,3.0,3.72,231.47,4.41,'1111122,1111122,1111122' 
COMPS,ioos:station:USF.COMPS:C12:1,2016-07-02T16:35:00Z,27.4980,-83.7220,3.0,4.57,232.12,5.65,'1111122,1111122,1111122' 
COMPS,ioos:station:USF.COMPS:C12:1,2016-07-02T17:05:00Z,27.4980,-83.7220,3.0,5.28,252.99,6.29,'1111122,1111122,1111122' 
COMPS,ioos:station:USF.COMPS:C12:1,2016-07-02T17:35:00Z,27.4980,-83.7220,3.0,5.1,255.92,6.21,'1111122,1111122,1111122' 
COMPS,ioos:station:USF.COMPS:C12:1,2016-07-02T18:05:00Z,27.4980,-83.7220,3.0,5.53,266.23,6.53,'1111122,1111122,1111122' 
COMPS,ioos:station:USF.COMPS:C12:1,2016-07-02T18:35:00Z,27.4980,-83.7220,3.0,5.71,259.73,6.85,'1111122,1111122,1111122' 
COMPS,ioos:station:USF.COMPS:C12:1,2016-07-02T19:05:00Z,27.4980,-83.7220,3.0,5.4,268.51,6.44,'1111122,1111122,1111122' 
COMPS,ioos:station:USF.COMPS:C12:1,2016-07-02T19:35:00Z,27.4980,-83.7220,3.0,5.16,264.81,6.04,'1111122,1111122,1111122' 
COMPS,ioos:station:USF.COMPS:C12:1,2016-07-02T20:05:00Z,27.4980,-83.7220,3.0,3.91,248.86,5.46,'1111122,1111122,1111122' 
COMPS,ioos:station:USF.COMPS:C12:1,2016-07-02T20:35:00Z,27.4980,-83.7220,3.0,3.17,269.56,4.38,'1111122,1111122,1111122' 
COMPS,ioos:station:USF.COMPS:C12:1,2016-07-02T21:05:00Z,27.4980,-83.7220,3.0,3.47,300.16,4.56,'1111122,1111122,1111122' 
COMPS,ioos:station:USF.COMPS:C12:1,2016-07-02T21:35:00Z,27.4980,-83.7220,3.0,3.27,336.27,4.08,'1111122,1111122,1111122' 
COMPS,ioos:station:USF.COMPS:C12:1,2016-07-02T22:05:00Z,27.4980,-83.7220,3.0,2.62,357.14,3.55,'1111122,1111122,1111122' 
COMPS,ioos:station:USF.COMPS:C12:1,2016-07-02T22:35:00Z,27.4980,-83.7220,3.0,1.37,4.43,2.28,'1111122,1111122,1111122' 
COMPS,ioos:station:USF.COMPS:C12:1,2016-07-02T23:05:00Z,27.4980,-83.7220,3.0,0.75,347.84,1.37,'1111122,1111122,1111122' 
COMPS,ioos:station:USF.COMPS:C12:1,2016-07-02T23:35:00Z,27.4980,-83.7220,3.0,1.12,118.37,2.11,'1111122,1111122,1111122' 
COMPS,ioos:station:USF.COMPS:C12:1,2016-07-03T00:05:00Z,27.4980,-83.7220,3.0,3.33,142.27,4.75,'1111122,1111122,1111122' 
COMPS,ioos:station:USF.COMPS:C12:1,2016-07-03T00:35:00Z,27.4980,-83.7220,3.0,4.08,154.08,5.07,'1111122,1111122,1111122' 
COMPS,ioos:station:USF.COMPS:C12:1,2016-07-03T01:05:00Z,27.4980,-83.7220,3.0,4.01,180.79,5.99,'1111122,1111122,1111122' 
COMPS,ioos:station:USF.COMPS:C12:1,2016-07-03T01:35:00Z,27.4980,-83.7220,3.0,3.03,186.61,4.13,'1111122,1111122,1111122' 
COMPS,ioos:station:USF.COMPS:C12:1,2016-07-03T02:05:00Z,27.4980,-83.7220,3.0,2.97,196.2,4.01,'1111122,1111122,1111122' 
COMPS,ioos:station:USF.COMPS:C12:1,2016-07-03T02:35:00Z,27.4980,-83.7220,3.0,3.59,192.73,4.82,'1111122,1111122,1111122' 
COMPS,ioos:station:USF.COMPS:C12:1,2016-07-03T03:05:00Z,27.4980,-83.7220,3.0,4.82,192.07,5.66,'1111122,1111122,1111122' 
COMPS,ioos:station:USF.COMPS:C12:1,2016-07-03T03:35:00Z,27.4980,-83.7220,3.0,4.99,192.91,6.1,'1111122,1111122,1111122' 
COMPS,ioos:station:USF.COMPS:C12:1,2016-07-03T04:05:00Z,27.4980,-83.7220,3.0,4.66,199.42,5.71,'1111122,1111122,1111122' 
COMPS,ioos:station:USF.COMPS:C12:1,2016-07-03T04:35:00Z,27.4980,-83.7220,3.0,4.83,196.89,5.63,'1111122,1111122,1111122' 
COMPS,ioos:station:USF.COMPS:C12:1,2016-07-03T05:05:00Z,27.4980,-83.7220,3.0,4.48,190.0,5.57,'1111122,1111122,1111122' 
COMPS,ioos:station:USF.COMPS:C12:1,2016-07-03T05:35:00Z,27.4980,-83.7220,3.0,4.67,199.16,5.92,'1111122,1111122,1111122' 
COMPS,ioos:station:USF.COMPS:C12:1,2016-07-03T06:05:00Z,27.4980,-83.7220,3.0,4.87,198.15,6.31,'1111122,1111122,1111122' 
COMPS,ioos:station:USF.COMPS:C12:1,2016-07-03T06:35:00Z,27.4980,-83.7220,3.0,5.01,206.36,6.14,'1111122,1111122,1111122' 
COMPS,ioos:station:USF.COMPS:C12:1,2016-07-03T07:05:00Z,27.4980,-83.7220,3.0,4.93,207.42,6.08,'1111122,1111122,1111122' 
COMPS,ioos:station:USF.COMPS:C12:1,2016-07-03T07:35:00Z,27.4980,-83.7220,3.0,4.7,205.19,5.66,'1111122,1111122,1111122' 
COMPS,ioos:station:USF.COMPS:C12:1,2016-07-03T08:05:00Z,27.4980,-83.7220,3.0,4.59,214.76,5.52,'1111122,1111122,1111122' 
COMPS,ioos:station:USF.COMPS:C12:1,2016-07-03T08:35:00Z,27.4980,-83.7220,3.0,3.73,210.09,4.56,'1111122,1111122,1111122' 
COMPS,ioos:station:USF.COMPS:C12:1,2016-07-03T09:05:00Z,27.4980,-83.7220,3.0,3.65,195.35,4.46,'1111122,1111122,1111122' 
COMPS,ioos:station:USF.COMPS:C12:1,2016-07-03T09:35:00Z,27.4980,-83.7220,3.0,3.82,193.84,4.67,'1111122,1111122,1111122' 
COMPS,ioos:station:USF.COMPS:C12:1,2016-07-03T10:05:00Z,27.4980,-83.7220,3.0,3.44,206.8,4.63,'1111122,1111122,1111122' 
COMPS,ioos:station:USF.COMPS:C12:1,2016-07-03T10:35:00Z,27.4980,-83.7220,3.0,2.89,220.52,3.73,'1111122,1111122,1111122' 
COMPS,ioos:station:USF.COMPS:C12:1,2016-07-03T11:05:00Z,27.4980,-83.7220,3.0,3.02,218.36,4.61,'1111122,1111122,1111122' 
COMPS,ioos:station:USF.COMPS:C12:1,2016-07-03T11:35:00Z,27.4980,-83.7220,3.0,2.79,207.59,3.8,'1111122,1111122,1111122' 
COMPS,ioos:station:USF.COMPS:C12:1,2016-07-03T12:05:00Z,27.4980,-83.7220,3.0,2.82,221.94,3.69,'1111122,1111122,1111122' 
COMPS,ioos:station:USF.COMPS:C12:1,2016-07-03T12:35:00Z,27.4980,-83.7220,3.0,2.67,232.46,3.42,'1111122,1111122,1111122' 
COMPS,ioos:station:USF.COMPS:C12:1,2016-07-03T13:05:00Z,27.4980,-83.7220,3.0,1.82,237.74,2.61,'1111122,1111122,1111122' 
COMPS,ioos:station:USF.COMPS:C12:1,2016-07-03T13:35:00Z,27.4980,-83.7220,3.0,1.59,247.09,2.32,'1111122,1111122,1111122' 
COMPS,ioos:station:USF.COMPS:C12:1,2016-07-03T14:05:00Z,27.4980,-83.7220,3.0,1.16,257.51,1.7,'1111122,1111122,1111122' 
COMPS,ioos:station:USF.COMPS:C12:1,2016-07-03T14:35:00Z,27.4980,-83.7220,3.0,1.44,192.81,1.92,'1111122,1111122,1111122' 
COMPS,ioos:station:USF.COMPS:C12:1,2016-07-03T15:05:00Z,27.4980,-83.7220,3.0,2.44,33.35,4.04,'1111122,1111122,1111122' 
COMPS,ioos:station:USF.COMPS:C12:1,2016-07-03T15:35:00Z,27.4980,-83.7220,3.0,0.86,32.61,2.3,'1111122,1111122,1111122' 
COMPS,ioos:station:USF.COMPS:C12:1,2016-07-03T16:05:00Z,27.4980,-83.7220,3.0,3.37,149.58,4.12,'1111122,1111122,1111122' 
COMPS,ioos:station:USF.COMPS:C12:1,2016-07-03T16:35:00Z,27.4980,-83.7220,3.0,2.78,149.24,3.73,'1111122,1111122,1111122' 
COMPS,ioos:station:USF.COMPS:C12:1,2016-07-03T17:05:00Z,27.4980,-83.7220,3.0,2.07,181.55,2.82,'1111122,1111122,1111122' 
COMPS,ioos:station:USF.COMPS:C12:1,2016-07-03T17:35:00Z,27.4980,-83.7220,3.0,1.36,165.69,2.19,'1111122,1111122,1111122' 
COMPS,ioos:station:USF.COMPS:C12:1,2016-07-03T18:05:00Z,27.4980,-83.7220,3.0,0.96,188.4,1.6,'1111122,1111122,1111122' 
COMPS,ioos:station:USF.COMPS:C12:1,2016-07-03T18:35:00Z,27.4980,-83.7220,3.0,1.81,208.19,2.61,'1111122,1111122,1111122' 
COMPS,ioos:station:USF.COMPS:C12:1,2016-07-03T19:05:00Z,27.4980,-83.7220,3.0,2.38,182.36,3.48,'1111122,1111122,1111122' 
COMPS,ioos:station:USF.COMPS:C12:1,2016-07-03T19:35:00Z,27.4980,-83.7220,3.0,2.59,174.52,3.53,'1111122,1111122,1111122' 
COMPS,ioos:station:USF.COMPS:C12:1,2016-07-03T20:05:00Z,27.4980,-83.7220,3.0,1.89,159.94,2.59,'1111122,1111122,1111122' 
COMPS,ioos:station:USF.COMPS:C12:1,2016-07-03T20:35:00Z,27.4980,-83.7220,3.0,2.07,172.64,2.6,'1111122,1111122,1111122' 
COMPS,ioos:station:USF.COMPS:C12:1,2016-07-03T21:05:00Z,27.4980,-83.7220,3.0,1.56,180.26,2.35,'1111122,1111122,1111122' 
COMPS,ioos:station:USF.COMPS:C12:1,2016-07-03T21:35:00Z,27.4980,-83.7220,3.0,1.61,158.27,2.6,'1111122,1111122,1111122' 
COMPS,ioos:station:USF.COMPS:C12:1,2016-07-03T22:05:00Z,27.4980,-83.7220,3.0,2.61,177.4,3.8,'1111122,1111122,1111122' 
COMPS,ioos:station:USF.COMPS:C12:1,2016-07-03T22:35:00Z,27.4980,-83.7220,3.0,2.85,166.48,3.9,'1111122,1111122,1111122' 
COMPS,ioos:station:USF.COMPS:C12:1,2016-07-03T23:05:00Z,27.4980,-83.7220,3.0,1.86,156.81,2.69,'1111122,1111122,1111122' 
COMPS,ioos:station:USF.COMPS:C12:1,2016-07-03T23:35:00Z,27.4980,-83.7220,3.0,1.22,177.6,2.16,'1111122,1111122,1111122' 
COMPS,ioos:station:USF.COMPS:C12:1,2016-07-04T00:05:00Z,27.4980,-83.7220,3.0,1.66,192.37,2.09,'1111122,1111122,1111122' 
COMPS,ioos:station:USF.COMPS:C12:1,2016-07-04T00:35:00Z,27.4980,-83.7220,3.0,0.83,164.68,1.36,'1111122,1111122,1111122' 
COMPS,ioos:station:USF.COMPS:C12:1,2016-07-04T01:05:00Z,27.4980,-83.7220,3.0,1.7,147.68,2.51,'1111122,1111122,1111122' 
COMPS,ioos:station:USF.COMPS:C12:1,2016-07-04T01:35:00Z,27.4980,-83.7220,3.0,1.57,199.86,2.29,'1111122,1111122,1111122' 
COMPS,ioos:station:USF.COMPS:C12:1,2016-07-04T02:05:00Z,27.4980,-83.7220,3.0,1.47,197.38,2.45,'1111122,1111122,1111122' 
COMPS,ioos:station:USF.COMPS:C12:1,2016-07-04T02:35:00Z,27.4980,-83.7220,3.0,2.98,166.88,4.01,'1111122,1111122,1111122' 
COMPS,ioos:station:USF.COMPS:C12:1,2016-07-04T03:05:00Z,27.4980,-83.7220,3.0,3.31,170.74,4.04,'1111122,1111122,1111122' 
COMPS,ioos:station:USF.COMPS:C12:1,2016-07-04T03:35:00Z,27.4980,-83.7220,3.0,3.12,169.81,4.13,'1111122,1111122,1111122' 
COMPS,ioos:station:USF.COMPS:C12:1,2016-07-04T04:05:00Z,27.4980,-83.7220,3.0,2.24,186.85,2.83,'1111122,1111122,1111122' 
COMPS,ioos:station:USF.COMPS:C12:1,2016-07-04T04:35:00Z,27.4980,-83.7220,3.0,1.22,198.74,1.78,'1111122,1111122,1111122' 
COMPS,ioos:station:USF.COMPS:C12:1,2016-07-04T05:05:00Z,27.4980,-83.7220,3.0,1.06,158.82,1.93,'1111122,1111122,1111122' 
COMPS,ioos:station:USF.COMPS:C12:1,2016-07-04T05:35:00Z,27.4980,-83.7220,3.0,1.38,123.18,1.95,'1111122,1111122,1111122' 
COMPS,ioos:station:USF.COMPS:C12:1,2016-07-04T06:05:00Z,27.4980,-83.7220,3.0,1.44,152.37,1.88,'1111122,1111122,1111122' 
COMPS,ioos:station:USF.COMPS:C12:1,2016-07-04T06:35:00Z,27.4980,-83.7220,3.0,2.19,145.47,2.79,'1111122,1111122,1111122' 
COMPS,ioos:station:USF.COMPS:C12:1,2016-07-04T07:05:00Z,27.4980,-83.7220,3.0,2.21,150.3,3.1,'1111122,1111122,1111122' 
COMPS,ioos:station:USF.COMPS:C12:1,2016-07-04T07:35:00Z,27.4980,-83.7220,3.0,2.41,154.62,3.57,'1111122,1111122,1111122' 
COMPS,ioos:station:USF.COMPS:C12:1,2016-07-04T08:05:00Z,27.4980,-83.7220,3.0,3.01,164.67,3.88,'1111122,1111122,1111122' 
COMPS,ioos:station:USF.COMPS:C12:1,2016-07-04T08:35:00Z,27.4980,-83.7220,3.0,3.71,154.84,4.44,'1111122,1111122,1111122' 
COMPS,ioos:station:USF.COMPS:C12:1,2016-07-04T09:05:00Z,27.4980,-83.7220,3.0,3.48,160.14,4.44,'1111122,1111122,1111122' 
COMPS,ioos:station:USF.COMPS:C12:1,2016-07-04T09:35:00Z,27.4980,-83.7220,3.0,3.52,163.87,4.52,'1111122,1111122,1111122' 
COMPS,ioos:station:USF.COMPS:C12:1,2016-07-04T10:05:00Z,27.4980,-83.7220,3.0,3.72,149.18,4.66,'1111122,1111122,1111122' 
COMPS,ioos:station:USF.COMPS:C12:1,2016-07-04T10:35:00Z,27.4980,-83.7220,3.0,3.49,155.95,4.36,'1111122,1111122,1111122' 
COMPS,ioos:station:USF.COMPS:C12:1,2016-07-04T11:05:00Z,27.4980,-83.7220,3.0,2.59,158.97,3.37,'1111122,1111122,1111122' 
COMPS,ioos:station:USF.COMPS:C12:1,2016-07-04T11:35:00Z,27.4980,-83.7220,3.0,2.74,170.51,3.36,'1111122,1111122,1111122' 
COMPS,ioos:station:USF.COMPS:C12:1,2016-07-04T12:05:00Z,27.4980,-83.7220,3.0,3.15,162.48,3.76,'1111122,1111122,1111122' 
COMPS,ioos:station:USF.COMPS:C12:1,2016-07-04T12:35:00Z,27.4980,-83.7220,3.0,2.45,160.83,3.63,'1111122,1111122,1111122' 
COMPS,ioos:station:USF.COMPS:C12:1,2016-07-04T13:05:00Z,27.4980,-83.7220,3.0,2.74,149.59,3.8,'1111122,1111122,1111122' 
COMPS,ioos:station:USF.COMPS:C12:1,2016-07-04T13:35:00Z,27.4980,-83.7220,3.0,2.4,147.18,3.94,'1111122,1111122,1111122' 
COMPS,ioos:station:USF.COMPS:C12:1,2016-07-04T14:05:00Z,27.4980,-83.7220,3.0,2.63,139.41,3.52,'1111122,1111122,1111122' 
COMPS,ioos:station:USF.COMPS:C12:1,2016-07-04T14:35:00Z,27.4980,-83.7220,3.0,2.97,135.87,3.84,'1111122,1111122,1111122' 
COMPS,ioos:station:USF.COMPS:C12:1,2016-07-04T15:05:00Z,27.4980,-83.7220,3.0,2.76,121.17,3.58,'1111122,1111122,1111122' 
COMPS,ioos:station:USF.COMPS:C12:1,2016-07-04T15:35:00Z,27.4980,-83.7220,3.0,3.52,143.07,4.44,'1111122,1111122,1111122' 
COMPS,ioos:station:USF.COMPS:C12:1,2016-07-04T16:05:00Z,27.4980,-83.7220,3.0,3.34,148.97,4.22,'1111122,1111122,1111122' 
COMPS,ioos:station:USF.COMPS:C12:1,2016-07-04T16:35:00Z,27.4980,-83.7220,3.0,3.06,152.67,4.11,'1111122,1111122,1111122' 
COMPS,ioos:station:USF.COMPS:C12:1,2016-07-04T17:05:00Z,27.4980,-83.7220,3.0,3.71,157.82,4.64,'1111122,1111122,1111122' 
COMPS,ioos:station:USF.COMPS:C12:1,2016-07-04T17:35:00Z,27.4980,-83.7220,3.0,3.57,177.12,4.45,'1111122,1111122,1111122' 
COMPS,ioos:station:USF.COMPS:C12:1,2016-07-04T18:05:00Z,27.4980,-83.7220,3.0,3.16,173.83,3.89,'1111122,1111122,1111122' 
COMPS,ioos:station:USF.COMPS:C12:1,2016-07-04T18:35:00Z,27.4980,-83.7220,3.0,3.41,173.65,4.18,'1111122,1111122,1111122' 
COMPS,ioos:station:USF.COMPS:C12:1,2016-07-04T19:05:00Z,27.4980,-83.7220,3.0,2.81,166.34,3.6,'1111122,1111122,1111122' 
COMPS,ioos:station:USF.COMPS:C12:1,2016-07-04T19:35:00Z,27.4980,-83.7220,3.0,3.0,182.2,3.85,'1111122,1111122,1111122' 
COMPS,ioos:station:USF.COMPS:C12:1,2016-07-04T20:05:00Z,27.4980,-83.7220,3.0,2.62,187.3,3.58,'1111122,1111122,1111122' 
COMPS,ioos:station:USF.COMPS:C12:1,2016-07-04T20:35:00Z,27.4980,-83.7220,3.0,2.38,184.33,3.47,'1111122,1111122,1111122' 
COMPS,ioos:station:USF.COMPS:C12:1,2016-07-04T21:05:00Z,27.4980,-83.7220,3.0,2.44,186.92,3.21,'1111122,1111122,1111122' 
COMPS,ioos:station:USF.COMPS:C12:1,2016-07-04T21:35:00Z,27.4980,-83.7220,3.0,2.66,190.8,3.93,'1111122,1111122,1111122' 
COMPS,ioos:station:USF.COMPS:C12:1,2016-07-04T22:05:00Z,27.4980,-83.7220,3.0,2.26,176.66,3.41,'1111122,1111122,1111122' 
COMPS,ioos:station:USF.COMPS:C12:1,2016-07-04T22:35:00Z,27.4980,-83.7220,3.0,1.96,169.4,2.99,'1111122,1111122,1111122' 
COMPS,ioos:station:USF.COMPS:C12:1,2016-07-04T23:05:00Z,27.4980,-83.7220,3.0,2.52,181.4,3.93,'1111122,1111122,1111122' 
COMPS,ioos:station:USF.COMPS:C12:1,2016-07-04T23:35:00Z,27.4980,-83.7220,3.0,2.03,182.1,2.51,'1111122,1111122,1111122' 
COMPS,ioos:station:USF.COMPS:C12:1,2016-07-05T00:05:00Z,27.4980,-83.7220,3.0,2.18,199.68,2.74,'1111122,1111122,1111122' 
COMPS,ioos:station:USF.COMPS:C12:1,2016-07-05T00:35:00Z,27.4980,-83.7220,3.0,2.21,233.5,3.12,'1111122,1111122,1111122' 
COMPS,ioos:station:USF.COMPS:C12:1,2016-07-05T01:05:00Z,27.4980,-83.7220,3.0,1.56,219.17,2.24,'1111122,1111122,1111122' 
COMPS,ioos:station:USF.COMPS:C12:1,2016-07-05T01:35:00Z,27.4980,-83.7220,3.0,1.62,236.57,2.22,'1111122,1111122,1111122' 
COMPS,ioos:station:USF.COMPS:C12:1,2016-07-05T02:05:00Z,27.4980,-83.7220,3.0,1.8,226.41,2.45,'1111122,1111122,1111122' 
COMPS,ioos:station:USF.COMPS:C12:1,2016-07-05T02:35:00Z,27.4980,-83.7220,3.0,2.15,213.73,2.61,'1111122,1111122,1111122' 